Location: Street
(51.1247°N, 2.7429°W)
Time: 05:01:16
(UTC+01:00)

Explorer 7 - Visible Passes

Search period start: 25 September 2022 00:00
Search period end: 05 October 2022 00:00
Orbit: 482 x 668 km, 50.3° (Epoch: 24 September)

Date Brightness Start Highest point End Pass type
(mag) Time Alt. Az. Time Alt. Az. Time Alt. Az.
25 Sep 8.6 20:30:04 10° W 20:33:38 26° SW 20:36:32 13° SSE visible
26 Sep 9.1 20:32:51 10° W 20:35:53 19° SW 20:38:48 10° S visible
27 Sep 9.4 20:35:57 10° WSW 20:38:04 14° SW 20:40:09 10° SSW visible
